Regional Weather Roundup
Issued by NWS

Home | Current Version | Previous Version | Text Only | Print | Product List | Glossary Off
Versions: 1 2 3 4 5 6 7 8 9 10 11 12 13 14 15 16 17 18 19 20 21 22 23 24 25 26 27 28 29 30 31 32 33 34 35 36 37 38 39 40 41 42 43 44 45 46 47 48 49 50

000
ASUS45 KPSR 171210
RWRAZ

ARIZONA HOURLY REGIONAL WEATHER ROUNDUP
NATIONAL WEATHER SERVICE PHOENIX AZ
500 AM MST SUN DEC 17 2017

NOTE: FAIR INDICATES FEW OR NO CLOUDS BELOW 12,000 FEET WITH NO
SIGNIFICANT WEATHER AND/OR OBSTRUCTIONS TO VISIBILITY.

AZZ001>003-036-171300-
NORTHWEST ARIZONA

CITY           SKY/WX    TMP DP  RH WIND       PRES   REMARKS
BULLHEAD CITY  MOCLDY    55  25  30 N22G29    29.88S
KINGMAN        CLEAR     35  21  56 E10       29.92S WCI  27
6HR MIN TEMP:  31; 6HR MAX TEMP:  38;

$$

AZZ004>008-015-016-018-171300-
NORTH CENTRAL ARIZONA

CITY           SKY/WX    TMP DP  RH WIND       PRES   REMARKS
GRAND CANYON   CLOUDY    20   3  48 CALM      29.95F
6HR MIN TEMP:  14; 6HR MAX TEMP:  24;

WILLIAMS       MOCLDY    28  10  47 S8        29.91F WCI  20
PRESCOTT       CLOUDY    29  14  53 SW3       29.90F
6HR MIN TEMP:  26; 6HR MAX TEMP:  31;

FLAGSTAFF      MOCLDY    25   9  50 CALM      29.92F
6HR MIN TEMP:  25; 6HR MAX TEMP:  30;

PAYSON         DRIZZLE   36  19  51 E5        29.91S WCI  32
PAGE           PTCLDY    29  11  47 W5        29.98R HAZE    WCI  24
6HR MIN TEMP:  28; 6HR MAX TEMP:  33;

$$

AZZ009>014-017-171300-
NORTHEAST ARIZONA

CITY           SKY/WX    TMP DP  RH WIND       PRES   REMARKS
WINSLOW        MOCLDY    28   7  41 CALM      29.94S
6HR MIN TEMP:  28; 6HR MAX TEMP:  36;

SAINT JOHNS    CLOUDY    30   3  31 NW5       29.93F WCI  25
6HR MIN TEMP:  28; 6HR MAX TEMP:  37;

WINDOW ROCK    MOCLDY    28   9  44 CALM      29.98R
6HR MIN TEMP:  28; 6HR MAX TEMP:  39;

SHOW LOW       CLOUDY    34  16  47 W7        29.95R WCI  28
$$

AZZ540-542>544-546-548-171300-
GREATER PHOENIX AREA

CITY           SKY/WX    TMP DP  RH WIND       PRES   REMARKS
PHOENIX        HVY RAIN  50  49  96 NE18      29.85R FOG
6HR MIN TEMP:  50; 6HR MAX TEMP:  57; 6HR PCP:  0.03;

BUCKEYE        CLOUDY    48  18  29 NE8       29.81S
LUKE AFB       CLOUDY    50  27  40 E12       29.83R
6HR MIN TEMP:  45; 6HR MAX TEMP:  51; 6HR PCP: TRACE;

DEER VALLEY    LGT RAIN  52  41  66 SE23G33   29.85R
6HR MIN TEMP:  47; 6HR MAX TEMP:  58; 6HR PCP: TRACE;

SCOTTSDALE     RAIN      50  47  89 SE7G17    29.90R FOG
6HR MIN TEMP:  48; 6HR MAX TEMP:  57; 6HR PCP:  0.05;

MESA-GATEWAY   CLOUDY    48  48 100 NE8       29.87S
$$

AZZ539-553-171300-
SOUTHWEST MARICOPA COUNTY AND PINAL COUNTY

CITY           SKY/WX    TMP DP  RH WIND       PRES   REMARKS
CASA GRANDE    NOT AVBL
$$

AZZ503-504-507>509-171300-
SOUTHEAST ARIZONA

CITY           SKY/WX    TMP DP  RH WIND       PRES   REMARKS
TUCSON         CLOUDY    51  41  68 E10       29.84S
6HR MIN TEMP:  50; 6HR MAX TEMP:  59; 6HR PCP:  0.02;

DAVIS-MONTHAN  MOCLDY    48  42  80 E14       29.82F
6HR MIN TEMP:  48; 6HR MAX TEMP:  56; 6HR PCP:  0.08;

NOGALES        MOCLDY    45  39  79 SE5       29.82F
6HR MIN TEMP:  44; 6HR MAX TEMP:  53; 6HR PCP:  0.03;

SIERRA VISTA   CLOUDY    43  39  87 S9        29.88R
6HR MIN TEMP:  42; 6HR MAX TEMP:  49; 6HR PCP:  0.02;

DOUGLAS        RAIN      42  40  92 S14G23    29.93R FOG
6HR MIN TEMP:  42; 6HR MAX TEMP:  50; 6HR PCP:  0.20;

SAFFORD        MOCLDY    44  16  32 NE5       29.86F
6HR MIN TEMP:  38; 6HR MAX TEMP:  48;

$$

AZZ532-171300-
SOUTHWEST ARIZONA

CITY           SKY/WX    TMP DP  RH WIND       PRES   REMARKS
YUMA           MOCLDY    53  23  31 NE8       29.77R
6HR MIN TEMP:  52; 6HR MAX TEMP:  57;

$$

CAZ041-043-047-048-061-525>527-560>570-171300-
SOUTHERN CALIFORNIA

CITY           SKY/WX    TMP DP  RH WIND       PRES   REMARKS
DOWNTOWN L.A.  CLEAR     50  36  58 CALM      29.82R
6HR MIN TEMP:  49; 6HR MAX TEMP:  55;

L.A. AIRPORT   CLEAR     59  22  24 N8        29.83R
6HR MIN TEMP:  55; 6HR MAX TEMP:  62;

SAN DIEGO      PTCLDY    53  47  79 CALM      29.80S
6HR MIN TEMP:  52; 6HR MAX TEMP:  58;

BURBANK        CLEAR     59  21  23 W5        29.83R
6HR MIN TEMP:  56; 6HR MAX TEMP:  63;

ONTARIO        PTCLDY    58  20  22 NE15G21   29.83R
6HR MIN TEMP:  49; 6HR MAX TEMP:  61;

RIVERSIDE      CLEAR     57  19  22 N16G26    29.84S
6HR MIN TEMP:  50; 6HR MAX TEMP:  61;

PALM SPRINGS   PTCLDY    62  22  21 N12       29.89S
6HR MIN TEMP:  62; 6HR MAX TEMP:  66;

EL CENTRO NAS  PTCLDY    57  34  41 N14       29.81R
6HR MIN TEMP:  48; 6HR MAX TEMP:  58;

IMPERIAL       CLOUDY    58  33  39 N12       29.78R
6HR MIN TEMP:  45; 6HR MAX TEMP:  58;

BLYTHE         PTCLDY    58  25  28 N18       29.81R
6HR MIN TEMP:  49; 6HR MAX TEMP:  59;

NEEDLES        MOCLDY    57  28  33 N23G30    29.88S
6HR MIN TEMP:  52; 6HR MAX TEMP:  59;

$$

NVZ020-UTZ003-171300-
SOUTHERN NEVADA-UTAH

CITY           SKY/WX    TMP DP  RH WIND       PRES   REMARKS
LAS VEGAS      MOCLDY    50  21  32 N21G30    29.98R
6HR MIN TEMP:  50; 6HR MAX TEMP:  54;

SALT LAKE CITY MOCLDY    30  26  85 CALM      30.15S
6HR MIN TEMP:  30; 6HR MAX TEMP:  32; 6HR PCP: TRACE;

$$

NMZ009-TXZ055-171300-
NEW MEXICO-WEST TEXAS

CITY           SKY/WX    TMP DP  RH WIND       PRES   REMARKS
ALBUQUERQUE    CLOUDY    31  14  49 E7        29.98S WCI  24
6HR MIN TEMP:  30; 6HR MAX TEMP:  34;

EL PASO        PTCLDY    39  30  70 NW3       29.94S
6HR MIN TEMP:  39; 6HR MAX TEMP:  50;

$$


........................KEY........................
SKY/WX - SKY CONDITION/WEATHER
TMP    - TEMPERATURE IN FAHRENHEIT
DP     - DEW POINT IN FAHRENHEIT
RH     - RELATIVE HUMIDITY IN PERCENT
WIND   - DIRECTION AND SPEED IN MILES PER HOUR (MPH)
VRB    - VARIABLE WIND DIRECTION
PRES   - MEAN SEA LEVEL PRESSURE IN INCHES OF MERCURY
         F - FALLING PRESSURE   R - RISING PRESSURE
         S - STEADY PRESSURE
VSB    - VISIBILITY IN MILES
HX     - HEAT INDEX IN FAHRENHEIT
WCI    - WIND CHILL INDEX IN FAHRENHEIT
TC     - TEMPERATURE IN CELSIUS WHICH IS ALSO KNOWN AS
         TEMPERATURE IN CENTIGRADE
AFB    - AIR FORCE BASE
         LUKE AFB IS LUKE AIR FORCE BASE
         DAVIS-MONTHAN IS DAVIS-MONTHAN AIR FORCE BASE
NAS    - NAVAL AIR STATION
         EL CENTRO NAS IS EL CENTRO NAVAL AIR STATION
N/A    - NOT AVAILABLE




USA.gov is the U.S. government's official web portal to all federal, state and local government web resources and services.